Location: Monrovia
(34.7865°N, 86.7139°W)
Time: 00:02:07
(UTC+00:00)

Cosmos 1610 Rocket - Pass Details

Date: 14 July 2020
Orbit: 953 x 1002 km, 82.9° (Epoch: 12 August)

Event Time Altitude Azimuth Distance (km) Brightness Sun altitude
Exits shadow 03:20:17 38° 180° (S) 1,482 5.0 -23.0°
Maximum altitude 03:22:58 85° 96° (E) 1,004 4.4 -23.3°
Drops below altitude 10° 03:29:23 10° 7° (N) 2,778 7.5 -24.1°
Sets 03:31:55 0° 7° (N) 3,733 8.2 -24.4°
